Amsterdam, Netherlands

2:42 PM CET on December 09, 2019 (GMT +0100)
Schiphol

Weather History for EHAM - July, 2019

Change the Weather History Date:

Tuesday, July 30, 2019

  Actual Average Record
Temperature  
Mean Temperature 70 °F -  
Max Temperature 82 °F 69 °F 89 °F (2002)
Min Temperature 59 °F 55 °F 51 °F (1996)
Cooling Degree Days 6    
Growing Degree Days 20 (Base 50)    
Moisture  
Dew Point 56 °F    
Average Humidity 60    
Maximum Humidity 88    
Minimum Humidity 30    
Precipitation  
Precipitation 0.00 in - - ()
Sea Level Pressure  
Sea Level Pressure 29.84 in    
Wind  
Wind Speed 7 mph ()    
Max Wind Speed 18 mph    
Max Gust Speed -    
Visibility 14.3 miles    
Events      
Averages and records for this station are not official NWS values.
T = Trace of Precipitation, MM = Missing Value Source: Averaged Metar Reports

Daily Weather History Graph

Daily Weather History Graph

Search for Another Location

Airport or City:

Astronomy

Jul. 30, 2019 Rise Set
Actual Time 5:57 AM CEST 9:35 PM CEST
Civil Twilight 5:15 AM CEST 10:18 PM CEST
Nautical Twilight 4:17 AM CEST 11:15 PM CEST
Astronomical Twilight 2:44 AM CEST 12:44 AM CEST
Moon 3:40 AM CEST (7/30) 8:35 PM CEST (7/30)
Length of Visible Light 17h 02m
Length of Day
15h 38m
Waning Crescent, 4% of the Moon is Illuminated
Jul 30
Waning Crescent
Aug 1
New
Aug 7
First Quarter
Aug 15
Full
Aug 23
Last Quarter

Hourly Weather History & Observations

Time (CEST) Temp. Heat Index Dew Point Humidity Pressure Visibility Wind Dir Wind Speed Gust Speed Precip Events Conditions
12:00 AM 63 °F - 56 °F 70% 29.89 in 28 mi East 4.5 mph - -   Partly Cloudy
12:25 AM 62.6 °F - 55.4 °F 77% 29.89 in - East 3.5 mph - N/A   Clear
12:55 AM 60.8 °F - 55.4 °F 82% 29.86 in - East 5.8 mph - N/A   Clear
1:00 AM 60 °F - 54 °F 74% 29.88 in 28 mi East 4.5 mph - -   Partly Cloudy
1:25 AM 60.8 °F - 53.6 °F 77% 29.86 in - East 3.5 mph - N/A   Clear
1:55 AM 62.6 °F - 55.4 °F 77% 29.86 in - East 6.9 mph - N/A   Clear
2:00 AM 62 °F - 55 °F 72% 29.88 in 28 mi East 6.7 mph - -   Partly Cloudy
2:25 AM 62.6 °F - 55.4 °F 77% 29.86 in - East 8.1 mph - N/A   Clear
2:55 AM 60.8 °F - 55.4 °F 82% 29.86 in - East 6.9 mph - N/A   Clear
3:00 AM 61 °F - 55 °F 74% 29.87 in 28 mi East 6.7 mph - -   Partly Cloudy
3:25 AM 60.8 °F - 55.4 °F 82% 29.86 in - East 5.8 mph - N/A   Clear
3:55 AM 62.6 °F - 55.4 °F 77% 29.86 in - East 6.9 mph - N/A   Clear
4:00 AM 62 °F - 56 °F 75% 29.86 in 28 mi East 6.7 mph - -   Partly Cloudy
4:25 AM 60.8 °F - 55.4 °F 82% 29.86 in - East 5.8 mph - N/A   Clear
4:55 AM 60.8 °F - 55.4 °F 82% 29.86 in - East 4.6 mph - N/A   Clear
5:00 AM 61 °F - 56 °F 78% 29.86 in 25 mi East 4.5 mph - -   Partly Cloudy
5:25 AM 59.0 °F - 55.4 °F 88% 29.86 in - East 4.6 mph - N/A   Clear
5:55 AM 60.8 °F - 57.2 °F 88% 29.83 in - East 4.6 mph - N/A   Clear
6:00 AM 60 °F - 56 °F 83% 29.86 in 22 mi East 4.5 mph - -   Partly Cloudy
6:25 AM 60.8 °F - 57.2 °F 88% 29.86 in - East 4.6 mph - N/A   Clear
6:55 AM 60.8 °F - 57.2 °F 88% 29.86 in - East 4.6 mph - N/A   Clear
7:00 AM 62 °F - 58 °F 81% 29.86 in 16 mi East 4.5 mph - -   Partly Cloudy
7:25 AM 64.4 °F - 59.0 °F 83% 29.86 in - East 4.6 mph - N/A   Clear
7:55 AM 66.2 °F - 59.0 °F 78% 29.83 in - East 5.8 mph - N/A   Clear
8:25 AM 68.0 °F - 60.8 °F 78% 29.83 in - East 4.6 mph - N/A   Clear
8:55 AM 69.8 °F - 60.8 °F 73% 29.83 in - ESE 6.9 mph - N/A   Clear
9:00 AM 69 °F - 60 °F 66% 29.85 in 15 mi ESE 6.7 mph - -   Partly Cloudy
9:25 AM 69.8 °F - 60.8 °F 73% 29.83 in - ESE 8.1 mph - N/A   Clear
9:55 AM 73.4 °F - 60.8 °F 65% 29.83 in - ESE 9.2 mph - N/A   Clear
10:00 AM 73 °F - 61 °F 56% 29.84 in 15 mi ESE 8.9 mph - -   Partly Cloudy
10:25 AM 73.4 °F - 60.8 °F 65% 29.83 in - SE 9.2 mph - N/A   Clear
10:55 AM 75.2 °F - 59.0 °F 57% 29.83 in - SE 10.4 mph - N/A   Clear
11:00 AM 75 °F - 60 °F 49% 29.83 in 16 mi SE 8.9 mph - -   Partly Cloudy
11:25 AM 77.0 °F - 59.0 °F 54% 29.83 in - SE 8.1 mph - N/A   Clear
11:55 AM 78.8 °F - 57.2 °F 47% 29.83 in - SE 9.2 mph - N/A   Clear
12:25 PM 80.6 °F 80.8 °F 57.2 °F 45% 29.80 in - SE 9.2 mph - N/A   Clear
12:55 PM 80.6 °F 81.1 °F 59.0 °F 48% 29.83 in - South 13.8 mph - N/A   Clear
1:00 PM 81 °F - 58 °F 36% 29.83 in 19 mi South 13.4 mph - -   Partly Cloudy
1:25 PM 80.6 °F 81.1 °F 59.0 °F 48% 29.83 in - SSW 11.5 mph - N/A   Clear
1:55 PM 80.6 °F 80.8 °F 57.2 °F 45% 29.83 in - SSW 11.5 mph - N/A   Clear
2:00 PM 80 °F - 57 °F 35% 29.83 in 16 mi SSW 13.4 mph - -   Partly Cloudy
2:25 PM 82.4 °F 81.7 °F 55.4 °F 39% 29.83 in - SSW 11.5 mph - N/A   Clear
2:55 PM 82.4 °F 81.7 °F 55.4 °F 39% 29.83 in - SW 16.1 mph - N/A   Clear
3:00 PM 82 °F - 56 °F 31% 29.83 in 22 mi SSW 13.4 mph - -   Scattered Clouds
3:25 PM 80.6 °F 80.8 °F 57.2 °F 45% 29.80 in - SW 15.0 mph - N/A   Clear
3:55 PM 82.4 °F 81.7 °F 55.4 °F 39% 29.80 in - South 12.7 mph - N/A   Clear
4:00 PM 80 °F - 54 °F 30% 29.83 in 19 mi South 15.7 mph - -   Mostly Cloudy
4:25 PM 80.6 °F - 50.0 °F 34% 29.83 in - SW 17.3 mph - N/A   Clear
4:55 PM 82.4 °F - 51.8 °F 35% 29.83 in - SSW 18.4 mph - N/A   Clear
5:00 PM 79 °F - 58 °F 38% 29.83 in 22 mi West 15.7 mph - -   Partly Cloudy
5:25 PM 78.8 °F - 55.4 °F 44% 29.83 in - West 12.7 mph - N/A   Clear
5:55 PM 78.8 °F - 57.2 °F 47% 29.83 in - West 9.2 mph - N/A   Clear
6:00 PM 79 °F - 57 °F 37% 29.83 in 22 mi West 8.9 mph - -   Partly Cloudy
6:25 PM 78.8 °F - 55.4 °F 44% 29.83 in - SW 9.2 mph - N/A   Clear
6:55 PM 78.8 °F - 55.4 °F 44% 29.83 in - SSW 8.1 mph - N/A   Clear
7:25 PM 78.8 °F - 53.6 °F 42% 29.83 in - SW 6.9 mph - N/A   Clear
7:55 PM 78.8 °F - 55.4 °F 44% 29.80 in - SW 13.8 mph - N/A   Clear
8:00 PM 77 °F - 53 °F 33% 29.83 in 25 mi SW 15.7 mph - -   Partly Cloudy
8:25 PM 77.0 °F - 53.6 °F 44% 29.80 in - SW 15.0 mph - N/A   Clear
8:55 PM 75.2 °F - 53.6 °F 47% 29.83 in 6.2 mi SW 13.8 mph - N/A   Partly Cloudy
9:00 PM 75 °F - 53 °F 36% 29.83 in 28 mi SW 13.4 mph - -   Partly Cloudy
9:25 PM 73.4 °F - 53.6 °F 50% 29.83 in 6.2 mi SSW 11.5 mph - N/A   Partly Cloudy
9:55 PM 73.4 °F - 55.4 °F 53% 29.83 in - SSW 12.7 mph - N/A   Clear
10:00 PM 73 °F - 55 °F 42% 29.85 in 25 mi SSW 11.2 mph - -   Partly Cloudy
10:25 PM 71.6 °F - 55.4 °F 57% 29.83 in - SSW 11.5 mph - N/A   Clear
10:55 PM 68.0 °F - 59.0 °F 73% 29.86 in - West 11.5 mph - N/A   Clear
11:00 PM 69 °F - 58 °F 60% 29.87 in 25 mi West 11.2 mph - -   Partly Cloudy
11:25 PM 68.0 °F - 57.2 °F 68% 29.86 in - West 8.1 mph - N/A   Clear
11:55 PM 68.0 °F - 57.2 °F 68% 29.86 in - WSW 8.1 mph - N/A   Clear